Time,TemperatureF,DewpointF,PressureIn,WindDirection,WindDirectionDegrees,WindSpeedMPH,WindSpeedGustMPH,Humidity,HourlyPrecipIn,Conditions,Clouds,dailyrainin,SoftwareType,DateUTC
2013-05-13 00:01:00,52.0,28.0,-100.00,North,-999,-999.0,-999.0,40,-99.99,,,-99.99,,2013-05-13 06:01:00,
2013-05-13 00:11:00,52.0,28.0,-100.00,North,-999,-999.0,-999.0,40,-99.99,,,-99.99,,2013-05-13 06:11:00,
2013-05-13 00:21:00,51.0,28.0,-100.00,North,-999,-999.0,-999.0,41,-99.99,,,-99.99,,2013-05-13 06:21:00,
2013-05-13 00:31:00,52.0,29.0,-100.00,North,-999,-999.0,-999.0,41,-99.99,,,-99.99,,2013-05-13 06:31:00,
2013-05-13 00:42:00,52.0,29.0,-100.00,North,-999,-999.0,-999.0,41,-99.99,,,-99.99,,2013-05-13 06:42:00,
2013-05-13 00:52:00,52.0,29.0,-100.00,North,-999,-999.0,-999.0,41,-99.99,,,-99.99,,2013-05-13 06:52:00,
2013-05-13 01:01:00,52.0,28.0,-100.00,North,-999,-999.0,-999.0,40,-99.99,,,-99.99,,2013-05-13 07:01:00,
2013-05-13 01:11:00,52.0,28.0,-100.00,North,-999,-999.0,-999.0,40,-99.99,,,-99.99,,2013-05-13 07:11:00,
2013-05-13 01:21:00,52.0,28.0,-100.00,North,-999,-999.0,-999.0,39,-99.99,,,-99.99,,2013-05-13 07:21:00,
2013-05-13 01:31:00,53.0,29.0,-100.00,North,-999,-999.0,-999.0,39,-99.99,,,-99.99,,2013-05-13 07:31:00,
2013-05-13 01:41:00,53.0,29.0,-100.00,North,-999,-999.0,-999.0,39,-99.99,,,-99.99,,2013-05-13 07:41:00,
2013-05-13 01:52:00,52.0,28.0,-100.00,North,-999,-999.0,-999.0,40,-99.99,,,-99.99,,2013-05-13 07:52:00,
2013-05-13 02:02:00,53.0,29.0,-100.00,North,-999,-999.0,-999.0,39,-99.99,,,-99.99,,2013-05-13 08:02:00,
2013-05-13 02:11:00,53.0,29.0,-100.00,North,-999,-999.0,-999.0,39,-99.99,,,-99.99,,2013-05-13 08:11:00,
2013-05-13 02:21:00,53.0,29.0,-100.00,North,-999,-999.0,-999.0,40,-99.99,,,-99.99,,2013-05-13 08:21:00,
2013-05-13 02:31:00,52.0,29.0,-100.00,North,-999,-999.0,-999.0,41,-99.99,,,-99.99,,2013-05-13 08:31:00,
2013-05-13 02:42:00,52.0,29.0,-100.00,North,-999,-999.0,-999.0,41,-99.99,,,-99.99,,2013-05-13 08:42:00,
2013-05-13 02:52:00,51.0,29.0,-100.00,North,-999,-999.0,-999.0,43,-99.99,,,-99.99,,2013-05-13 08:52:00,
2013-05-13 03:01:00,50.0,29.0,-100.00,North,-999,-999.0,-999.0,45,-99.99,,,-99.99,,2013-05-13 09:01:00,
2013-05-13 03:11:00,50.0,29.0,-100.00,North,-999,-999.0,-999.0,45,-99.99,,,-99.99,,2013-05-13 09:11:00,
2013-05-13 03:21:00,50.0,30.0,-100.00,North,-999,-999.0,-999.0,46,-99.99,,,-99.99,,2013-05-13 09:21:00,
2013-05-13 03:33:00,48.0,30.0,-100.00,North,-999,-999.0,-999.0,49,-99.99,,,-99.99,,2013-05-13 09:33:00,
2013-05-13 03:42:00,48.0,30.0,-100.00,North,-999,-999.0,-999.0,49,-99.99,,,-99.99,,2013-05-13 09:42:00,
2013-05-13 03:52:00,48.0,30.0,-100.00,North,-999,-999.0,-999.0,50,-99.99,,,-99.99,,2013-05-13 09:52:00,
2013-05-13 04:02:00,48.0,30.0,-100.00,North,-999,-999.0,-999.0,49,-99.99,,,-99.99,,2013-05-13 10:02:00,
2013-05-13 04:12:00,48.0,30.0,-100.00,North,-999,-999.0,-999.0,49,-99.99,,,-99.99,,2013-05-13 10:12:00,
2013-05-13 04:22:00,49.0,30.0,-100.00,North,-999,-999.0,-999.0,48,-99.99,,,-99.99,,2013-05-13 10:22:00,
2013-05-13 04:32:00,48.0,30.0,-100.00,North,-999,-999.0,-999.0,50,-99.99,,,-99.99,,2013-05-13 10:32:00,
2013-05-13 04:42:00,48.0,30.0,-100.00,North,-999,-999.0,-999.0,50,-99.99,,,-99.99,,2013-05-13 10:42:00,
2013-05-13 04:52:00,49.0,30.0,-100.00,North,-999,-999.0,-999.0,48,-99.99,,,-99.99,,2013-05-13 10:52:00,
2013-05-13 05:02:00,48.0,30.0,-100.00,North,-999,-999.0,-999.0,50,-99.99,,,-99.99,,2013-05-13 11:02:00,
2013-05-13 05:12:00,48.0,30.0,-100.00,North,-999,-999.0,-999.0,50,-99.99,,,-99.99,,2013-05-13 11:12:00,
2013-05-13 05:21:00,46.0,30.0,-100.00,North,-999,-999.0,-999.0,54,-99.99,,,-99.99,,2013-05-13 11:21:00,
2013-05-13 05:32:00,45.0,30.0,-100.00,North,-999,-999.0,-999.0,56,-99.99,,,-99.99,,2013-05-13 11:32:00,
2013-05-13 05:41:00,45.0,30.0,-100.00,North,-999,-999.0,-999.0,56,-99.99,,,-99.99,,2013-05-13 11:41:00,
2013-05-13 05:52:00,46.0,30.0,-100.00,North,-999,-999.0,-999.0,53,-99.99,,,-99.99,,2013-05-13 11:52:00,
2013-05-13 06:01:00,47.0,30.0,-100.00,North,-999,-999.0,-999.0,52,-99.99,,,-99.99,,2013-05-13 12:01:00,
2013-05-13 06:11:00,47.0,30.0,-100.00,North,-999,-999.0,-999.0,52,-99.99,,,-99.99,,2013-05-13 12:11:00,
2013-05-13 06:21:00,46.0,30.0,-100.00,North,-999,-999.0,-999.0,54,-99.99,,,-99.99,,2013-05-13 12:21:00,
2013-05-13 06:32:00,45.0,30.0,-100.00,North,-999,-999.0,-999.0,55,-99.99,,,-99.99,,2013-05-13 12:32:00,
2013-05-13 06:42:00,45.0,30.0,-100.00,North,-999,-999.0,-999.0,55,-99.99,,,-99.99,,2013-05-13 12:42:00,
2013-05-13 06:52:00,46.0,30.0,-100.00,North,-999,-999.0,-999.0,54,-99.99,,,-99.99,,2013-05-13 12:52:00,
2013-05-13 07:01:00,45.0,30.0,-100.00,North,-999,-999.0,-999.0,56,-99.99,,,-99.99,,2013-05-13 13:01:00,
2013-05-13 07:11:00,45.0,30.0,-100.00,North,-999,-999.0,-999.0,56,-99.99,,,-99.99,,2013-05-13 13:11:00,
2013-05-13 07:21:00,46.0,31.0,-100.00,North,-999,-999.0,-999.0,56,-99.99,,,-99.99,,2013-05-13 13:21:00,
2013-05-13 07:31:00,45.0,31.0,-100.00,North,-999,-999.0,-999.0,57,-99.99,,,-99.99,,2013-05-13 13:31:00,
2013-05-13 07:41:00,45.0,31.0,-100.00,North,-999,-999.0,-999.0,57,-99.99,,,-99.99,,2013-05-13 13:41:00,
2013-05-13 07:52:00,46.0,31.0,-100.00,North,-999,-999.0,-999.0,56,-99.99,,,-99.99,,2013-05-13 13:52:00,
2013-05-13 08:01:00,47.0,32.0,-100.00,North,-999,-999.0,-999.0,55,-99.99,,,-99.99,,2013-05-13 14:01:00,
2013-05-13 08:11:00,47.0,32.0,-100.00,North,-999,-999.0,-999.0,55,-99.99,,,-99.99,,2013-05-13 14:11:00,
2013-05-13 08:22:00,47.0,31.0,-100.00,North,-999,-999.0,-999.0,54,-99.99,,,-99.99,,2013-05-13 14:22:00,
2013-05-13 08:31:00,49.0,33.0,-100.00,North,-999,-999.0,-999.0,53,-99.99,,,-99.99,,2013-05-13 14:31:00,
2013-05-13 08:41:00,49.0,33.0,-100.00,North,-999,-999.0,-999.0,53,-99.99,,,-99.99,,2013-05-13 14:41:00,
2013-05-13 08:52:00,50.0,32.0,-100.00,North,-999,-999.0,-999.0,50,-99.99,,,-99.99,,2013-05-13 14:52:00,
2013-05-13 09:01:00,51.0,32.0,-100.00,North,-999,-999.0,-999.0,48,-99.99,,,-99.99,,2013-05-13 15:01:00,
2013-05-13 09:11:00,51.0,32.0,-100.00,North,-999,-999.0,-999.0,48,-99.99,,,-99.99,,2013-05-13 15:11:00,
2013-05-13 09:21:00,52.0,32.0,-100.00,North,-999,-999.0,-999.0,47,-99.99,,,-99.99,,2013-05-13 15:21:00,
2013-05-13 09:31:00,52.0,32.0,-100.00,North,-999,-999.0,-999.0,46,-99.99,,,-99.99,,2013-05-13 15:31:00,
2013-05-13 09:42:00,52.0,32.0,-100.00,North,-999,-999.0,-999.0,46,-99.99,,,-99.99,,2013-05-13 15:42:00,
2013-05-13 09:53:00,53.0,32.0,-100.00,North,-999,-999.0,-999.0,45,-99.99,,,-99.99,,2013-05-13 15:53:00,
2013-05-13 10:03:00,54.0,33.0,-100.00,North,-999,-999.0,-999.0,44,-99.99,,,-99.99,,2013-05-13 16:03:00,
2013-05-13 10:11:00,54.0,33.0,-100.00,North,-999,-999.0,-999.0,44,-99.99,,,-99.99,,2013-05-13 16:11:00,
2013-05-13 10:21:00,55.0,33.0,-100.00,North,-999,-999.0,-999.0,43,-99.99,,,-99.99,,2013-05-13 16:21:00,
2013-05-13 10:33:00,55.0,33.0,-100.00,North,-999,-999.0,-999.0,44,-99.99,,,-99.99,,2013-05-13 16:33:00,
2013-05-13 10:42:00,55.0,33.0,-100.00,North,-999,-999.0,-999.0,44,-99.99,,,-99.99,,2013-05-13 16:42:00,
2013-05-13 10:52:00,56.0,33.0,-100.00,North,-999,-999.0,-999.0,42,-99.99,,,-99.99,,2013-05-13 16:52:00,
2013-05-13 11:02:00,57.0,34.0,-100.00,North,-999,-999.0,-999.0,41,-99.99,,,-99.99,,2013-05-13 17:02:00,
2013-05-13 11:12:00,57.0,34.0,-100.00,North,-999,-999.0,-999.0,41,-99.99,,,-99.99,,2013-05-13 17:12:00,
2013-05-13 11:21:00,57.0,34.0,-100.00,North,-999,-999.0,-999.0,41,-99.99,,,-99.99,,2013-05-13 17:21:00,
2013-05-13 11:32:00,58.0,34.0,-100.00,North,-999,-999.0,-999.0,41,-99.99,,,-99.99,,2013-05-13 17:32:00,
2013-05-13 11:42:00,58.0,34.0,-100.00,North,-999,-999.0,-999.0,41,-99.99,,,-99.99,,2013-05-13 17:42:00,
2013-05-13 11:54:00,59.0,34.0,-100.00,North,-999,-999.0,-999.0,39,-99.99,,,-99.99,,2013-05-13 17:54:00,
2013-05-13 12:03:00,60.0,32.0,-100.00,North,-999,-999.0,-999.0,35,-99.99,,,-99.99,,2013-05-13 18:03:00,
2013-05-13 12:12:00,60.0,32.0,-100.00,North,-999,-999.0,-999.0,35,-99.99,,,-99.99,,2013-05-13 18:12:00,
2013-05-13 12:23:00,63.0,33.0,-100.00,North,-999,-999.0,-999.0,33,-99.99,,,-99.99,,2013-05-13 18:23:00,
2013-05-13 12:32:00,63.0,33.0,-100.00,North,-999,-999.0,-999.0,33,-99.99,,,-99.99,,2013-05-13 18:32:00,
2013-05-13 12:42:00,63.0,33.0,-100.00,North,-999,-999.0,-999.0,33,-99.99,,,-99.99,,2013-05-13 18:42:00,
2013-05-13 12:52:00,65.0,34.0,-100.00,North,-999,-999.0,-999.0,31,-99.99,,,-99.99,,2013-05-13 18:52:00,
2013-05-13 13:01:00,67.0,33.0,-100.00,North,-999,-999.0,-999.0,28,-99.99,,,-99.99,,2013-05-13 19:01:00,
2013-05-13 13:11:00,67.0,33.0,-100.00,North,-999,-999.0,-999.0,28,-99.99,,,-99.99,,2013-05-13 19:11:00,
2013-05-13 13:21:00,66.0,30.0,-100.00,North,-999,-999.0,-999.0,26,-99.99,,,-99.99,,2013-05-13 19:21:00,
2013-05-13 13:32:00,66.0,30.0,-100.00,North,-999,-999.0,-999.0,26,-99.99,,,-99.99,,2013-05-13 19:32:00,
2013-05-13 13:43:00,66.0,30.0,-100.00,North,-999,-999.0,-999.0,26,-99.99,,,-99.99,,2013-05-13 19:43:00,
2013-05-13 13:53:00,67.0,30.0,-100.00,North,-999,-999.0,-999.0,25,-99.99,,,-99.99,,2013-05-13 19:53:00,
2013-05-13 14:01:00,67.0,30.0,-100.00,North,-999,-999.0,-999.0,25,-99.99,,,-99.99,,2013-05-13 20:01:00,
2013-05-13 14:11:00,67.0,30.0,-100.00,North,-999,-999.0,-999.0,25,-99.99,,,-99.99,,2013-05-13 20:11:00,
2013-05-13 14:23:00,67.0,30.0,-100.00,North,-999,-999.0,-999.0,25,-99.99,,,-99.99,,2013-05-13 20:23:00,
2013-05-13 14:33:00,65.0,28.0,-100.00,North,-999,-999.0,-999.0,25,-99.99,,,-99.99,,2013-05-13 20:33:00,
2013-05-13 14:44:00,65.0,28.0,-100.00,North,-999,-999.0,-999.0,25,-99.99,,,-99.99,,2013-05-13 20:44:00,
2013-05-13 14:53:00,64.0,27.0,-100.00,North,-999,-999.0,-999.0,25,-99.99,,,-99.99,,2013-05-13 20:53:00,
2013-05-13 15:02:00,65.0,27.0,-100.00,North,-999,-999.0,-999.0,24,-99.99,,,-99.99,,2013-05-13 21:02:00,
2013-05-13 15:14:00,65.0,27.0,-100.00,North,-999,-999.0,-999.0,24,-99.99,,,-99.99,,2013-05-13 21:14:00,
2013-05-13 15:23:00,66.0,28.0,-100.00,North,-999,-999.0,-999.0,24,-99.99,,,-99.99,,2013-05-13 21:23:00,
2013-05-13 15:33:00,66.0,28.0,-100.00,North,-999,-999.0,-999.0,24,-99.99,,,-99.99,,2013-05-13 21:33:00,
2013-05-13 15:43:00,66.0,28.0,-100.00,North,-999,-999.0,-999.0,24,-99.99,,,-99.99,,2013-05-13 21:43:00,
2013-05-13 15:53:00,65.0,27.0,-100.00,North,-999,-999.0,-999.0,24,-99.99,,,-99.99,,2013-05-13 21:53:00,
2013-05-13 16:02:00,61.0,29.0,-100.00,North,-999,-999.0,-999.0,29,-99.99,,,-99.99,,2013-05-13 22:02:00,
2013-05-13 16:12:00,61.0,29.0,-100.00,North,-999,-999.0,-999.0,29,-99.99,,,-99.99,,2013-05-13 22:12:00,
2013-05-13 16:22:00,64.0,28.0,-100.00,North,-999,-999.0,-999.0,26,-99.99,,,-99.99,,2013-05-13 22:22:00,
2013-05-13 16:32:00,63.0,29.0,-100.00,North,-999,-999.0,-999.0,27,-99.99,,,-99.99,,2013-05-13 22:32:00,
2013-05-13 16:42:00,63.0,29.0,-100.00,North,-999,-999.0,-999.0,27,-99.99,,,-99.99,,2013-05-13 22:42:00,
2013-05-13 16:52:00,60.0,28.0,-100.00,North,-999,-999.0,-999.0,29,-99.99,,,-99.99,,2013-05-13 22:52:00,
2013-05-13 17:01:00,60.0,28.0,-100.00,North,-999,-999.0,-999.0,30,-99.99,,,-99.99,,2013-05-13 23:01:00,
2013-05-13 17:12:00,60.0,28.0,-100.00,North,-999,-999.0,-999.0,30,-99.99,,,-99.99,,2013-05-13 23:12:00,
2013-05-13 17:23:00,59.0,29.0,-100.00,North,-999,-999.0,-999.0,32,-99.99,,,-99.99,,2013-05-13 23:23:00,
2013-05-13 17:33:00,58.0,31.0,-100.00,North,-999,-999.0,-999.0,35,-99.99,,,-99.99,,2013-05-13 23:33:00,
2013-05-13 17:54:00,59.0,29.0,-100.00,North,-999,-999.0,-999.0,32,-99.99,,,-99.99,,2013-05-13 23:54:00,
2013-05-13 18:02:00,58.0,30.0,-100.00,North,-999,-999.0,-999.0,34,-99.99,,,-99.99,,2013-05-14 00:02:00,
2013-05-13 18:12:00,58.0,30.0,-100.00,North,-999,-999.0,-999.0,34,-99.99,,,-99.99,,2013-05-14 00:12:00,
2013-05-13 18:22:00,57.0,30.0,-100.00,North,-999,-999.0,-999.0,35,-99.99,,,-99.99,,2013-05-14 00:22:00,
2013-05-13 18:31:00,57.0,30.0,-100.00,North,-999,-999.0,-999.0,35,-99.99,,,-99.99,,2013-05-14 00:31:00,
2013-05-13 18:41:00,57.0,30.0,-100.00,North,-999,-999.0,-999.0,35,-99.99,,,-99.99,,2013-05-14 00:41:00,
2013-05-13 18:52:00,57.0,30.0,-100.00,North,-999,-999.0,-999.0,36,-99.99,,,-99.99,,2013-05-14 00:52:00,
2013-05-13 19:01:00,57.0,32.0,-100.00,North,-999,-999.0,-999.0,38,-99.99,,,-99.99,,2013-05-14 01:01:00,
2013-05-13 19:11:00,57.0,32.0,-100.00,North,-999,-999.0,-999.0,38,-99.99,,,-99.99,,2013-05-14 01:11:00,
2013-05-13 19:21:00,54.0,31.0,-100.00,North,-999,-999.0,-999.0,41,-99.99,,,-99.99,,2013-05-14 01:21:00,
2013-05-13 19:31:00,55.0,30.0,-100.00,North,-999,-999.0,-999.0,38,-99.99,,,-99.99,,2013-05-14 01:31:00,
2013-05-13 19:43:00,55.0,30.0,-100.00,North,-999,-999.0,-999.0,38,-99.99,,,-99.99,,2013-05-14 01:43:00,
2013-05-13 19:53:00,54.0,30.0,-100.00,North,-999,-999.0,-999.0,39,-99.99,,,-99.99,,2013-05-14 01:53:00,
2013-05-13 20:02:00,57.0,29.0,-100.00,North,-999,-999.0,-999.0,34,-99.99,,,-99.99,,2013-05-14 02:02:00,
2013-05-13 20:11:00,57.0,29.0,-100.00,North,-999,-999.0,-999.0,34,-99.99,,,-99.99,,2013-05-14 02:11:00,
2013-05-13 20:21:00,55.0,29.0,-100.00,North,-999,-999.0,-999.0,37,-99.99,,,-99.99,,2013-05-14 02:21:00,
2013-05-13 20:31:00,55.0,30.0,-100.00,North,-999,-999.0,-999.0,38,-99.99,,,-99.99,,2013-05-14 02:31:00,
2013-05-13 20:42:00,55.0,30.0,-100.00,North,-999,-999.0,-999.0,38,-99.99,,,-99.99,,2013-05-14 02:42:00,
2013-05-13 20:52:00,56.0,29.0,-100.00,North,-999,-999.0,-999.0,36,-99.99,,,-99.99,,2013-05-14 02:52:00,
2013-05-13 21:01:00,56.0,29.0,-100.00,North,-999,-999.0,-999.0,35,-99.99,,,-99.99,,2013-05-14 03:01:00,
2013-05-13 21:11:00,56.0,29.0,-100.00,North,-999,-999.0,-999.0,35,-99.99,,,-99.99,,2013-05-14 03:11:00,
2013-05-13 21:21:00,55.0,29.0,-100.00,North,-999,-999.0,-999.0,37,-99.99,,,-99.99,,2013-05-14 03:21:00,
2013-05-13 21:33:00,55.0,29.0,-100.00,North,-999,-999.0,-999.0,37,-99.99,,,-99.99,,2013-05-14 03:33:00,
2013-05-13 21:42:00,55.0,29.0,-100.00,North,-999,-999.0,-999.0,37,-99.99,,,-99.99,,2013-05-14 03:42:00,
2013-05-13 21:53:00,57.0,28.0,-100.00,North,-999,-999.0,-999.0,33,-99.99,,,-99.99,,2013-05-14 03:53:00,
2013-05-13 22:02:00,57.0,28.0,-100.00,North,-999,-999.0,-999.0,33,-99.99,,,-99.99,,2013-05-14 04:02:00,
2013-05-13 22:13:00,57.0,28.0,-100.00,North,-999,-999.0,-999.0,33,-99.99,,,-99.99,,2013-05-14 04:13:00,
2013-05-13 22:22:00,56.0,29.0,-100.00,North,-999,-999.0,-999.0,36,-99.99,,,-99.99,,2013-05-14 04:22:00,
2013-05-13 22:32:00,55.0,31.0,-100.00,North,-999,-999.0,-999.0,39,-99.99,,,-99.99,,2013-05-14 04:32:00,
2013-05-13 22:43:00,55.0,31.0,-100.00,North,-999,-999.0,-999.0,39,-99.99,,,-99.99,,2013-05-14 04:43:00,
2013-05-13 22:53:00,55.0,31.0,-100.00,North,-999,-999.0,-999.0,39,-99.99,,,-99.99,,2013-05-14 04:53:00,
2013-05-13 23:01:00,55.0,31.0,-100.00,North,-999,-999.0,-999.0,39,-99.99,,,-99.99,,2013-05-14 05:01:00,
2013-05-13 23:12:00,55.0,31.0,-100.00,North,-999,-999.0,-999.0,39,-99.99,,,-99.99,,2013-05-14 05:12:00,
2013-05-13 23:21:00,55.0,31.0,-100.00,North,-999,-999.0,-999.0,39,-99.99,,,-99.99,,2013-05-14 05:21:00,
2013-05-13 23:32:00,54.0,29.0,-100.00,North,-999,-999.0,-999.0,38,-99.99,,,-99.99,,2013-05-14 05:32:00,
2013-05-13 23:42:00,54.0,29.0,-100.00,North,-999,-999.0,-999.0,38,-99.99,,,-99.99,,2013-05-14 05:42:00,
2013-05-13 23:52:00,54.0,29.0,-100.00,North,-999,-999.0,-999.0,38,-99.99,,,-99.99,,2013-05-14 05:52:00,